Castlebar Airport

Jump to: basic info | weather | comments

Related pages: nearby airports | nearby navaids | notams | map

Basic information (top)

Codes: CLB EICB
Location: lon 53.848400, lat -9.280370
Status: small_airport

Weather (top)

Current conditions for Ireland West Knock Airport 17nm (31km) ENE (rec'd 2014/08/22 18:00Z):

EIKN 221800Z 32011KT 9999 SCT026 BKN050 13/06 Q1016 NOSIG

Airport forecast for Ireland West Knock Airport 17nm (31km) ENE (rec'd 2014/08/22 18:25Z):

TAF EIKN 221700Z 2218/2318 33012KT 9999 SCT020 BKN040 
      BECMG 2220/2223 29007KT 
      BECMG 2309/2312 34010KT

Latest comments (top)

No longer exists.: This airport was closed in 2001 and the ... [read]

fv: fg [read]

More... (top)

See also NOTAMs and nearby airports and navaids, or visit the Castlebar Airport page at the main OurAirports website..